STARLINK-1199, 45201

Orbit data source: Space-Track

STARLINK-1199, 45201 is a payload satellite owned by SpaceX/Seattle (US) in LEO that was launched on Mon, 17 Feb 2020 UTC via an FALCON 9 launch vehicle from the Air Force Eastern Test Range (AFETR). Payload-class satellites include a variety of spacecraft equipped with specific instruments for various scientific and technological missions. These include communications satellites like Starlink; space stations such as the ISS; scientific satellites like the Hubble; Earth observation satellites from companies like Planet Labs, Umbra, and HawkEye 360; GPS; miniature CubeSats for education and research; and military/defense satellites.

Loading next visibility...
Identifier
45201, 2020-012Z
Orbit
LEO
Country
Flag of USUS
Related business
Manufacturer
SpaceX/Seattle
Mission
Partially operational Commercial Communications
Bus & Motor
STARLINK, Unknown motor
Mass
260 kg wet, ~248 kg dry
Launch date (UTC)
2020-02-17 (6 years ago)
Launch vehicle
FALCON 9
Launch site
Air Force Eastern Test Range (AFETR)
Object type
Payload
Rocket body
Debris
Shape & HBR
Box + 1 Pan, 10.1 m
Radar Cross Section
13.562 m², Large (>1 m²)

Expand to show TLE details & history
Last TLE update: 17 hours ago

TLE from 17 hours ago
0 STARLINK-1199
1 45201U 20012Z   26124.28334236  .00043295  00000-0  13789-2 0  9996
2 45201  53.1557 125.4248 0002582  64.9792 295.1477 15.32158449343670
Epoch: 2026-05-04T06:48Z
TLE epoch observation values (Epoch: 2026-05-04T06:48:00.779Z)
Latitude
-0.00008°
Longitude
161.24673°
Altitude
469.523 km
Speed
7.633 km/s
True Right ascension
08h 21m 41s
True Declination
0° 00' 00"
Sunlit
Object was in daylight at epoch
Visualization orbit readout
Latitude
Unknown
Longitude
Unknown
Altitude
Unknown
Speed
Unknown
Apparent Right ascension
Unknown
Apparent Declination
Unknown
Sunlit
N/A
Visualization observer readout
Local Sidereal Time
07:39:03
Azimuth
Unknown
Elevation
Unknown
Doppler factor
Unknown
Orbital elements
Apogee altitude
471.399 km
Perigee altitude
467.863 km
Semi-major axis
6,847.768 km
Eccentricity
0.00026
Inclination
53.1557°
RAAN
125.4248°
Arg. of periapsis
64.9792°
True anomaly
295.12091°
Mean anomaly
295.1477°
Eccentric anomaly
295.13431°
Mean motion
3.83018 °/min
Orbital period
93.99 mins
BSTAR
0.0013789
Loading maneuver chart data...
Computing Atmospheric mass density...
Loading historical data...
Loading historical data...
Loading historical data...
Loading historical data...
Loading historical data...
Loading historical data...
Loading historical data...

Documentation

Showing up to 5 results
|